Date String (YYYY-MM-DD hh:mm:ss) UTC,Instrument flags,Ambient pressure (hPa),Sample flow (lpm),Bypass flow (lpm),Sample temperature (°C),Ambient temperature (°C),ASC tube jacket temperature (°C),LED temperature (°C),Box temperature (°C),Sample RH (%),Span deviation,Mass concentration (μg/m³),Mass concentration (μg/m³),Mass concentration (μg/m³)
DateTimeUTC,F1_M11,P_M11,Q1_M11,Q2_M11,T1_M11,T2_M11,T3_M11,T4_M11,T5_M11,U1_M11,ZSPAN_M11,X0_M11,X2_M11,X1_M11
2022-02-07 21:00:00,,0830.3,5.01,0.00,27.5,26.8,00.0,36.4,29.4,08.0,0000.0,0011.67,0006.81,0006.39
2022-02-07 21:01:00,,0830.3,5.01,0.00,27.5,26.8,00.0,36.4,29.4,08.2,0000.0,0011.65,0006.77,0006.36
2022-02-07 21:02:00,,0830.3,4.99,0.00,27.5,26.8,00.0,36.4,29.4,07.8,0000.0,0011.97,0006.77,0006.32
2022-02-07 21:03:00,,0830.3,5.00,0.00,27.6,26.8,00.0,36.4,29.4,07.7,0000.0,0012.52,0006.73,0006.28
2022-02-07 21:04:00,,0830.2,5.00,0.00,27.6,26.8,00.0,36.4,29.4,07.9,0000.0,0013.51,0006.70,0006.24
2022-02-07 21:05:00,,0830.2,5.02,0.00,27.6,26.8,00.0,36.4,29.4,07.7,0000.0,0014.71,0006.71,0006.24
2022-02-07 21:06:00,,0830.2,4.99,0.00,27.6,26.8,00.0,36.4,29.4,07.7,0000.0,0014.94,0006.75,0006.24
2022-02-07 21:07:00,,0830.2,4.99,0.00,27.6,26.9,00.0,36.4,29.4,08.1,0000.0,0015.42,0006.75,0006.22
2022-02-07 21:08:00,,0830.1,5.01,0.00,27.6,26.9,00.0,36.5,29.4,08.3,0000.0,0015.54,0006.73,0006.19
2022-02-07 21:09:00,,0830.1,4.98,0.00,27.6,26.9,00.0,36.5,29.4,08.2,0000.0,0015.64,0006.72,0006.17
2022-02-07 21:10:00,,0830.1,5.02,0.00,27.6,26.9,00.0,36.5,29.4,08.0,0000.0,0015.67,0006.71,0006.16
2022-02-07 21:11:00,,0830.1,4.99,0.00,27.6,26.9,00.0,36.5,29.4,07.6,0000.0,0015.62,0006.72,0006.16
2022-02-07 21:12:00,,0830.1,5.00,0.00,27.6,26.9,00.0,36.5,29.5,07.7,0000.0,0015.67,0006.74,0006.16
2022-02-07 21:13:00,,0830.1,4.99,0.00,27.6,26.9,00.0,36.5,29.5,08.1,0000.0,0016.38,0006.76,0006.19
2022-02-07 21:14:00,,0830.0,5.02,0.00,27.6,26.9,00.0,36.5,29.5,08.1,0000.0,0016.54,0006.77,0006.20
2022-02-07 21:15:00,,0830.1,5.00,0.00,27.6,26.9,00.0,36.5,29.5,07.9,0000.0,0015.59,0006.77,0006.20
2022-02-07 21:16:00,,0830.1,5.01,0.00,27.7,26.9,00.0,36.5,29.5,08.0,0000.0,0014.64,0006.75,0006.17
2022-02-07 21:17:00,,0830.0,4.98,0.00,27.7,26.9,00.0,36.6,29.5,07.7,0000.0,0013.81,0006.70,0006.13
2022-02-07 21:18:00,,0830.1,4.99,0.00,27.7,26.9,00.0,36.6,29.5,07.4,0000.0,0014.14,0006.66,0006.09
2022-02-07 21:19:00,,0830.1,5.02,0.00,27.7,26.9,00.0,36.6,29.5,07.5,0000.0,0014.41,0006.70,0006.07
2022-02-07 21:20:00,,0830.0,4.99,0.00,27.7,27.0,00.0,36.6,29.5,07.5,0000.0,0014.44,0006.72,0006.08
2022-02-07 21:21:00,,0830.1,5.01,0.00,27.7,27.0,00.0,36.6,29.5,07.9,0000.0,0014.50,0006.76,0006.11
2022-02-07 21:22:00,,0830.1,4.99,0.00,27.7,27.0,00.0,36.6,29.5,07.9,0000.0,0014.58,0006.75,0006.10
2022-02-07 21:23:00,,0830.1,5.00,0.00,27.7,27.0,00.0,36.6,29.6,07.6,0000.0,0014.65,0006.74,0006.09
2022-02-07 21:24:00,,0830.0,5.00,0.00,27.7,27.0,00.0,36.6,29.6,07.7,0000.0,0014.27,0006.71,0006.06
2022-02-07 21:25:00,,0830.1,4.99,0.00,27.7,27.0,00.0,36.7,29.6,07.7,0000.0,0013.59,0006.68,0006.02
2022-02-07 21:26:00,,0830.1,5.01,0.00,27.8,27.1,00.0,36.7,29.6,07.7,0000.0,0014.26,0006.62,0005.95
2022-02-07 21:27:00,,0830.0,4.98,0.00,27.8,27.1,00.0,36.7,29.6,07.1,0000.0,0014.10,0006.51,0005.85
2022-02-07 21:28:00,,0830.0,5.01,0.00,27.8,27.1,00.0,36.7,29.6,07.0,0000.0,0013.96,0006.46,0005.77
2022-02-07 21:29:00,,0830.0,4.99,0.00,27.8,27.1,00.0,36.7,29.6,07.0,0000.0,0013.15,0006.40,0005.71
2022-02-07 21:30:00,,0830.1,5.01,0.00,27.8,27.1,00.0,36.7,29.6,07.2,0000.0,0012.61,0006.34,0005.68
2022-02-07 21:31:00,,0830.0,5.00,0.00,27.8,27.1,00.0,36.7,29.6,07.2,0000.0,0012.65,0006.30,0005.62
2022-02-07 21:32:00,,0830.1,4.99,0.00,27.8,27.1,00.0,36.7,29.6,07.5,0000.0,0012.58,0006.24,0005.54
2022-02-07 21:33:00,,0830.1,5.02,0.00,27.8,27.2,00.0,36.7,29.7,07.4,0000.0,0012.35,0006.16,0005.47
2022-02-07 21:34:00,,0830.0,4.98,0.00,27.9,27.2,00.0,36.7,29.7,07.3,0000.0,0012.33,0006.12,0005.43
2022-02-07 21:35:00,,0830.0,4.99,0.00,27.9,27.2,00.0,36.8,29.7,07.4,0000.0,0012.02,0006.07,0005.40
2022-02-07 21:36:00,,0830.0,5.02,0.00,27.9,27.2,00.0,36.8,29.7,07.2,0000.0,0012.53,0006.09,0005.40
2022-02-07 21:37:00,,0830.0,4.99,0.00,27.9,27.2,00.0,36.8,29.8,07.1,0000.0,0012.28,0006.15,0005.44
2022-02-07 21:38:00,,0829.9,5.00,0.00,27.9,27.2,00.0,36.8,29.8,07.3,0000.0,0012.44,0006.25,0005.51
2022-02-07 21:39:00,,0829.9,5.02,0.00,27.9,27.2,00.0,36.8,29.8,07.2,0000.0,0012.85,0006.40,0005.62
2022-02-07 21:40:00,,0829.9,4.99,0.00,27.9,27.2,00.0,36.8,29.8,07.6,0000.0,0012.90,0006.48,0005.71
2022-02-07 21:41:00,,0829.8,5.01,0.00,28.0,27.3,00.0,36.8,29.8,07.6,0000.0,0013.23,0006.56,0005.79
2022-02-07 21:42:00,,0829.9,4.99,0.00,27.9,27.2,00.0,36.8,29.8,07.8,0000.0,0013.45,0006.67,0005.89
2022-02-07 21:43:00,,0829.9,5.00,0.00,27.9,27.2,00.0,36.8,29.8,07.6,0000.0,0013.52,0006.77,0006.01
2022-02-07 21:44:00,,0829.9,5.01,0.00,27.9,27.2,00.0,36.8,29.8,07.9,0000.0,0013.90,0006.90,0006.14
2022-02-07 21:45:00,,0829.9,4.99,0.00,27.9,27.2,00.0,36.8,29.8,07.6,0000.0,0014.10,0007.02,0006.26
2022-02-07 21:46:00,,0829.9,5.00,0.00,27.9,27.2,00.0,36.9,29.8,07.8,0000.0,0014.39,0007.13,0006.36
2022-02-07 21:47:00,,0829.8,5.00,0.00,27.9,27.2,00.0,36.9,29.8,07.6,0000.0,0014.00,0007.24,0006.47
2022-02-07 21:48:00,,0829.8,5.01,0.00,28.0,27.2,00.0,36.9,29.8,07.5,0000.0,0014.19,0007.31,0006.56
2022-02-07 21:49:00,,0829.8,4.99,0.00,28.0,27.2,00.0,36.9,29.7,07.4,0000.0,0014.39,0007.37,0006.64
2022-02-07 21:50:00,,0829.8,5.00,0.00,28.0,27.2,00.0,36.9,29.7,07.4,0000.0,0014.07,0007.40,0006.67
2022-02-07 21:51:00,,0829.8,5.01,0.00,28.0,27.2,00.0,36.9,29.7,07.4,0000.0,0014.22,0007.46,0006.71
2022-02-07 21:52:00,,0829.8,4.99,0.00,27.9,27.2,00.0,36.9,29.7,07.3,0000.0,0015.24,0007.47,0006.74
2022-02-07 21:53:00,,0829.8,4.99,0.00,27.9,27.2,00.0,36.9,29.7,07.3,0000.0,0015.85,0007.45,0006.75
2022-02-07 21:54:00,,0829.8,5.01,0.00,27.9,27.2,00.0,36.9,29.7,07.6,0000.0,0016.68,0007.48,0006.77
2022-02-07 21:55:00,,0829.8,4.98,0.00,27.9,27.2,00.0,36.9,29.7,07.9,0000.0,0017.35,0007.49,0006.80
2022-02-07 21:56:00,,0829.8,5.01,0.00,27.9,27.2,00.0,36.9,29.7,08.0,0000.0,0018.24,0007.60,0006.90
2022-02-07 21:57:00,,0829.8,5.00,0.00,27.9,27.2,00.0,36.9,29.7,07.9,0000.0,0018.49,0007.71,0006.98
2022-02-07 21:58:00,,0829.8,4.99,0.00,27.9,27.2,00.0,36.9,29.7,08.0,0000.0,0019.33,0007.83,0007.09
2022-02-07 21:59:00,,0829.8,5.00,0.00,27.9,27.2,00.0,36.9,29.6,08.0,0000.0,0019.25,0007.97,0007.21
